Location: Caltech
(34.1382°N, 118.1253°W)
Time: 21:25:48
(UTC-08:00)

Cosmos 2237 Rocket - Visible Passes

Search period start: 20 December 2014 00:00
Search period end: 30 December 2014 00:00
Orbit: 837 x 849 km, 71.0° (Epoch: 19 December)

Date Brightness Start Highest point End Pass type
(mag) Time Alt. Az. Time Alt. Az. Time Alt. Az.
20 Dec 4.8 05:25:18 10° SSE 05:29:33 23° E 05:33:49 10° NE visible
20 Dec 5.1 17:50:51 10° WNW 17:54:38 19° W 17:58:25 10° SW visible
21 Dec 4.8 05:10:42 10° SSE 05:14:49 21° E 05:18:56 10° NE visible
21 Dec 5.1 17:35:58 10° NW 17:39:54 20° W 17:43:51 10° SW visible
22 Dec 4.8 04:56:06 10° SE 05:00:05 20° E 05:04:04 10° NE visible
22 Dec 5.1 17:21:05 10° NW 17:25:10 21° W 17:29:15 10° SSW visible
23 Dec 4.8 04:41:31 10° SE 04:45:20 19° E 04:49:10 10° ENE visible
23 Dec 2.4 06:23:34 10° SW 06:28:57 47° WNW 06:34:22 10° N visible
24 Dec 4.8 04:26:56 10° SE 04:30:36 18° E 04:34:16 10° ENE visible
24 Dec 2.4 06:08:45 10° SW 06:14:10 50° WNW 06:19:37 10° N visible
25 Dec 4.9 04:12:23 10° SE 04:15:52 17° E 04:19:21 10° ENE visible
25 Dec 2.3 05:53:56 10° SW 05:59:24 52° WNW 06:04:53 10° N visible
26 Dec 4.9 03:57:50 10° SE 04:01:07 16° E 04:04:24 10° ENE visible
26 Dec 2.2 05:39:08 10° SW 05:44:37 55° WNW 05:50:08 10° NNE visible
27 Dec 4.9 03:43:19 10° SE 03:46:23 15° E 03:49:27 10° ENE visible
27 Dec 2.2 05:24:20 10° SW 05:29:50 58° WNW 05:35:23 10° NNE visible
28 Dec 4.9 03:28:49 10° SE 03:31:38 14° E 03:34:28 10° ENE visible
28 Dec 2.1 05:09:31 10° SSW 05:15:04 61° WNW 05:20:38 10° NNE visible
29 Dec 4.9 03:16:14 13° ESE 03:16:54 13° E 03:19:27 10° ENE visible
29 Dec 2.0 04:58:24 41° SW 05:00:17 65° WNW 05:05:52 10° NNE visible
